This is the latest recevied weather packets stored in our database for station/object W0SS-13. If no packets are shown the sender has not sent any weather packets the latest 10 day(s).
| Time | Temp. | Humidity | Pressure | Rain* | Wind** | Luminosity | Snow |
|---|---|---|---|---|---|---|---|
| 1777901775 | 19.44° C | 57% | 1004.9 hPa | 0 mm | - | 352 W/m² | - |
| 1777901472 | 18.89° C | 59% | 1004.9 hPa | 0 mm | - | 326 W/m² | - |
| 1777901169 | 18.33° C | 58% | 1004.8 hPa | 0 mm | - | 119 W/m² | - |
| 1777900867 | 18.33° C | 58% | 1004.9 hPa | 0 mm | - | 103 W/m² | - |
| 1777900564 | 18.33° C | 58% | 1005 hPa | 0 mm | - | 101 W/m² | - |
| 1777900261 | 18.33° C | 58% | 1004.7 hPa | 0 mm | - | 88 W/m² | - |
| 1777899957 | 18.33° C | 59% | 1004.7 hPa | 0 mm | - | 83 W/m² | - |
| 1777899654 | 18.33° C | 59% | 1004.7 hPa | 0 mm | - | 108 W/m² | - |
| 1777899352 | 18.33° C | 59% | 1004.7 hPa | 0 mm | - | 207 W/m² | - |
| 1777899049 | 17.78° C | 60% | 1004.7 hPa | 0 mm | - | 172 W/m² | - |
| 1777898746 | 17.78° C | 60% | 1004.7 hPa | 0 mm | - | 149 W/m² | - |
| 1777898444 | 17.22° C | 60% | 1004.9 hPa | 0 mm | - | 118 W/m² | - |
| 1777898141 | 17.22° C | 61% | 1004.8 hPa | 0 mm | - | 101 W/m² | - |
| 1777897838 | 16.67° C | 62% | 1004.9 hPa | 0 mm | - | 84 W/m² | - |
| 1777897534 | 16.67° C | 62% | 1005 hPa | 0 mm | - | 70 W/m² | - |
| 1777897229 | 16.67° C | 62% | 1004.9 hPa | 0 mm | - | 65 W/m² | - |
| 1777896925 | 16.11° C | 62% | 1005 hPa | 0 mm | - | 57 W/m² | - |
| 1777896618 | 16.11° C | 63% | 1005 hPa | 0 mm | - | 41 W/m² | - |
| 1777896314 | 16.11° C | 63% | 1004.8 hPa | 0 mm | - | 33 W/m² | - |
| 1777896013 | 15.56° C | 63% | 1004.6 hPa | 0 mm | - | 30 W/m² | - |
| 1777895710 | 16.11° C | 62% | 1005 hPa | 0 mm | - | 25 W/m² | - |
| 1777895407 | 16.11° C | 62% | 1004.8 hPa | 0 mm | - | 22 W/m² | - |
| 1777895105 | 16.11° C | 62% | 1004.8 hPa | 0 mm | - | 18 W/m² | - |
| 1777894802 | 16.11° C | 62% | 1004.8 hPa | 0 mm | - | 14 W/m² | - |
| 1777894498 | 16.11° C | 62% | 1004.9 hPa | 0 mm | - | 10 W/m² | - |
* Rain latest hour (hover to see other rain measurements)
** Current wind speed in m/s (hover to see current wind gust speed)